Probability
0 0 0 0 0 0 0 0 0 0 0 0 0 0 0 0 0 0 0 0 1 4 9 12 14 15 14 12 14 18 21 20 14 9 6 3 3 3 3 3 3 3 3 3 2 2 1 1 2
0 0 0 0 0 0 0 0 0 0 0 0 0 0 0 0 0 0 0 0 1 5 9 12 15 17 17 16 16 17 20 20 16 12 9 6 4 3 3 3 3 3 3 2 3 3 2 2 1
0 0 0 0 0 0 0 0 0 0 0 0 0 0 0 0 0 0 0 1 3 6 10 13 17 19 20 20 19 18 19 20 18 16 14 10 7 4 3 2 2 2 1 1 3 3 4 3 1
0 0 0 0 0 0 0 0 0 0 0 0 0 0 0 0 0 0 0 1 3 7 10 14 18 21 22 22 21 20 19 20 19 19 17 14 10 7 3 1 1 1 0 1 2 3 3 2 1
0 0 0 0 0 0 0 0 0 0 0 0 0 0 0 0 0 0 1 2 3 6 9 14 18 22 23 23 22 21 20 19 19 19 17 15 12 8 4 1 0 0 0 0 1 1 1 1 0
0 0 0 0 0 0 0 0 0 0 0 0 0 0 0 0 0 1 2 3 3 5 9 13 17 19 20 20 21 21 20 19 19 18 17 15 12 8 5 2 1 0 0 0 0 0 0 0 0
0 0 0 0 0 0 0 0 0 0 0 0 0 0 0 0 0 1 3 3 4 6 8 11 14 16 16 16 18 20 19 19 18 16 14 13 11 8 5 4 3 1 0 0 0 0 0 0 0
0 0 0 0 0 0 0 0 0 0 0 0 0 0 0 0 1 2 3 4 5 6 7 9 11 12 13 14 15 16 15 15 14 12 10 9 9 8 6 4 4 3 2 1 0 0 0 0 0
0 0 0 0 0 0 0 0 0 0 0 0 0 0 0 0 1 3 3 3 4 5 6 6 7 9 11 11 12 11 10 10 10 8 6 6 6 6 5 4 4 3 3 2 0 0 0 0 0
0 0 0 0 0 0 0 0 0 0 0 0 0 0 0 1 2 3 3 3 4 4 3 3 4 6 7 8 8 8 7 7 7 7 5 4 4 5 4 2 1 1 1 1 0 0 0 0 0
0 0 0 0 0 0 0 0 0 0 0 0 0 0 0 1 2 3 3 3 2 1 1 1 2 4 5 6 6 6 6 6 6 5 4 4 4 5 5 3 1 0 0 0 0 0 0 0 0
0 0 0 0 0 0 0 0 0 0 0 0 0 0 0 1 2 3 2 1 1 0 0 0 1 2 4 6 6 6 6 6 5 4 3 4 5 5 5 3 2 0 0 0 0 0 0 0 0
0 0 0 0 0 0 0 0 0 0 0 0 0 0 0 1 2 2 1 0 0 0 0 0 0 1 3 5 6 6 6 5 4 3 3 3 4 4 4 3 1 0 0 0 0 0 0 0 0
0 0 0 0 0 0 0 0 0 0 0 0 0 0 0 0 1 1 1 0 0 0 0 0 0 1 2 4 6 6 5 4 3 3 3 3 3 3 3 1 0 0 0 0 0 0 0 0 0
0 0 0 0 0 0 0 0 0 0 0 0 0 0 0 0 0 1 1 0 0 0 0 0 0 0 1 3 4 4 4 3 3 3 3 3 3 3 2 1 0 0 0 0 0 0 0 0 0
0 0 0 0 0 0 0 0 0 0 0 0 0 0 0 0 0 0 0 0 0 0 0 0 0 0 0 1 3 3 3 3 3 3 3 3 3 2 1 0 0 0 0 0 0 0 0 0 0
0 0 0 0 0 0 0 0 0 0 0 0 0 0 0 0 0 0 0 0 0 0 0 0 0 0 0 1 2 3 3 3 3 3 3 3 1 1 1 0 0 0 0 0 0 0 0 0 0
0 0 0 0 0 0 0 0 0 0 0 0 0 0 0 0 0 0 0 0 0 0 0 0 0 0 0 0 1 2 3 3 3 3 3 2 1 0 1 0 0 0 0 0 0 0 0 0 0
0 0 0 0 0 0 0 0 0 0 0 0 0 0 0 0 0 0 0 0 0 1 0 0 0 0 0 0 1 2 2 2 3 3 3 2 1 0 1 1 0 0 0 0 0 0 0 0 0
0 0 0 0 0 0 0 0 0 0 0 0 0 0 0 0 0 0 0 0 0 0 0 0 0 0 0 0 0 1 1 1 2 3 3 3 1 0 1 1 1 0 0 0 0 0 0 0 0
0 0 0 0 0 0 0 0 0 0 0 0 0 0 0 0 0 0 0 0 0 0 0 0 0 0 0 0 0 0 0 0 1 3 3 3 2 0 1 2 1 0 0 0 0 0 0 0 0
0 0 0 0 0 0 0 0 0 0 0 0 0 0 0 0 0 0 0 0 0 0 0 0 0 0 0 0 0 0 0 0 1 2 3 3 1 0 1 2 2 1 0 0 0 0 0 0 0
0 0 0 0 0 0 0 0 0 0 0 0 0 0 0 0 0 0 0 0 0 0 0 0 0 0 0 0 0 0 0 0 0 1 2 2 1 0 0 1 1 1 0 0 0 0 0 0 0
0 0 0 0 0 0 0 0 0 0 0 0 0 0 0 0 0 0 0 0 0 0 0 0 0 0 0 0 0 0 0 0 0 0 1 1 0 0 0 0 0 0 0 0 0 0 0 0 0
0 0 0 0 0 0 0 0 0 0 0 0 0 0 0 0 0 0 0 0 0 0 0 0 0 0 0 0 0 0 0 0 0 0 0 0 0 0 0 0 0 0 0 0 0 0 0 0 0
0 0 0 0 0 0 0 0 0 0 0 0 0 0 0 0 0 0 0 0 0 0 0 0 0 0 0 0 0 0 0 0 0 0 0 0 0 0 0 0 0 0 0 0 0 0 0 0 0
0 0 0 0 0 0 0 0 0 0 0 0 0 0 0 0 0 0 0 0 0 0 0 0 0 0 0 0 0 0 0 0 0 0 0 0 0 0 0 0 0 0 0 0 0 0 0 0 0
0 0 0 0 0 0 0 0 0 0 0 0 0 0 0 0 0 0 0 0 0 0 0 0 0 0 0 0 0 0 0 0 0 0 0 0 0 0 0 0 0 0 0 0 0 0 0 0 0
0 0 0 0 0 0 0 0 0 0 0 0 0 0 0 0 0 0 0 0 0 0 0 0 0 0 0 0 0 0 0 0 0 0 0 0 0 0 0 0 0 0 0 0 0 0 0 0 0
0 0 0 0 0 0 0 0 0 0 0 0 0 0 0 0 0 0 0 0 0 0 0 0 0 0 0 0 0 0 0 0 0 0 0 0 0 0 0 0 0 0 0 0 0 0 0 0 0
Wind_Speed
5 2 2 4 6 4 3 5 3 2 2 1 1 3 5 5 4 3 1 1 2 3 3 4 8 9 10 10 10 11 10 10 11 11 11 11 11 12 12 12 13 13 13 14 14 14 14 15 15
1 1 5 5 5 2 5 4 4 4 3 2 2 2 3 1 1 1 1 2 1 2 3 3 7 10 10 10 11 11 10 10 10 11 11 11 11 12 12 12 12 13 13 13 13 14 14 14 14
1 3 5 5 4 7 6 3 5 1 1 1 2 2 1 0 0 0 2 0 2 2 2 3 8 10 10 11 11 10 10 10 10 10 10 10 11 11 11 12 12 12 12 12 12 13 13 13 14
3 5 5 3 6 6 4 2 3 2 1 1 2 1 0 2 1 1 1 2 3 2 3 3 8 10 10 10 10 10 10 10 10 10 10 11 11 11 11 12 12 12 12 12 12 12 13 13 13
4 4 3 2 6 4 3 1 3 2 1 1 2 2 1 2 2 3 3 3 4 3 3 3 8 9 10 10 10 10 10 10 10 10 10 11 11 11 11 11 11 11 11 12 12 12 12 12 13
4 4 3 6 6 4 2 1 2 2 1 1 2 2 1 2 3 3 3 3 4 3 3 3 7 8 9 10 10 10 9 9 10 10 10 10 11 11 11 11 11 11 11 11 11 12 12 12 12
4 3 4 5 4 4 2 2 3 3 2 3 3 3 1 0 1 3 4 4 5 4 4 3 3 4 7 8 9 9 9 9 9 10 10 10 10 10 10 10 10 10 11 11 11 11 11 12 12
4 4 2 4 4 5 2 2 1 3 3 1 3 4 3 2 2 4 5 5 5 5 4 4 4 4 4 5 8 9 9 9 9 10 9 9 9 9 10 9 10 10 10 10 11 11 11 11 12
4 3 5 6 6 4 1 2 1 1 3 2 1 0 0 5 6 6 4 4 3 4 4 4 4 4 4 4 6 7 8 9 9 8 9 8 5 5 5 8 9 10 10 10 11 11 12 11 11
4 5 8 4 4 3 2 2 3 2 1 0 1 2 3 6 7 7 5 4 3 2 2 3 4 4 4 4 4 4 5 5 5 5 5 4 4 4 5 8 10 10 9 9 10 11 10 8 5
4 6 4 2 2 2 2 1 1 4 2 4 4 4 4 6 6 6 6 5 4 3 2 3 3 4 4 4 4 3 3 3 4 5 4 4 4 3 4 3 4 5 7 5 6 6 4 4 4
3 3 2 1 1 2 3 2 1 2 4 1 3 5 7 7 7 7 6 4 3 3 2 3 3 4 4 4 4 4 3 3 3 3 4 3 3 3 3 3 3 3 2 3 3 3 4 5 5
4 2 1 1 1 1 2 2 2 2 2 2 4 6 6 7 6 4 3 3 3 3 2 2 3 3 3 4 3 4 3 3 3 3 3 3 3 3 3 2 2 3 2 3 3 3 4 5 5
3 2 1 1 1 0 2 1 1 4 0 2 3 4 5 6 6 4 4 4 4 4 3 2 3 3 4 4 4 3 3 3 3 3 3 3 3 3 3 3 3 3 2 2 3 3 3 4 4
1 1 2 2 2 1 2 4 5 3 2 1 2 3 3 3 3 5 5 5 5 4 4 3 3 3 4 5 5 3 3 4 3 3 3 4 3 3 3 3 3 2 2 3 3 3 3 4 4
1 1 3 3 2 2 4 9 4 2 4 3 3 3 3 3 3 3 3 3 3 4 4 4 3 4 3 4 5 4 3 4 3 3 3 4 4 4 3 3 3 2 2 3 3 3 3 4 4
1 4 5 3 2 2 5 7 3 2 4 4 4 3 3 3 3 3 3 3 4 4 5 5 4 5 4 4 5 5 4 4 3 3 3 3 3 4 3 3 3 3 3 3 3 3 3 3 3
6 4 3 4 2 3 4 7 4 1 3 4 3 3 3 4 5 3 3 3 3 4 4 5 4 5 4 4 5 4 4 3 3 3 3 3 3 4 3 3 4 3 3 3 3 4 3 3 3
3 4 5 4 2 3 6 8 7 3 2 3 3 3 4 5 3 1 2 3 3 4 5 5 5 4 4 4 4 3 3 2 2 2 3 3 3 3 3 3 3 3 3 3 3 3 4 3 2
4 4 4 3 1 3 4 8 6 4 5 5 5 5 4 3 2 1 2 3 4 5 5 5 5 5 5 4 3 3 3 2 2 2 3 3 3 3 3 4 3 3 3 4 4 4 3 2 3
6 7 6 4 1 1 2 7 5 4 3 3 3 3 3 3 3 3 3 3 3 4 5 5 5 5 5 4 4 4 4 3 2 2 2 2 3 3 3 3 3 3 3 3 3 3 4 3 2
8 4 4 4 2 3 1 6 6 3 3 3 3 3 3 3 3 3 3 3 4 4 4 5 5 5 5 5 6 7 5 4 3 2 2 2 2 3 3 3 3 3 3 3 3 3 3 3 2
4 1 2 3 4 2 2 4 8 1 4 5 4 4 4 3 4 4 4 4 3 3 4 4 5 5 5 5 6 6 4 3 3 3 3 2 2 2 2 3 3 3 2 3 3 2 3 2 3
2 1 2 1 2 6 7 6 8 3 5 4 3 3 3 3 2 2 1 1 2 2 3 4 5 4 4 5 5 5 5 5 5 4 3 2 1 1 2 2 2 3 2 2 2 2 2 2 2
1 3 1 1 2 7 3 5 9 4 3 3 3 4 3 2 1 1 1 2 2 3 3 4 5 4 4 4 4 4 5 6 6 5 4 3 2 1 1 1 2 2 2 2 2 2 2 2 2
3 4 5 5 5 4 2 7 7 2 2 1 1 1 2 1 0 0 2 2 3 3 4 4 5 4 4 4 3 3 4 4 3 3 3 3 2 2 2 2 2 2 2 2 2 2 1 1 1
2 2 2 3 1 2 5 6 7 1 3 3 2 3 3 2 1 1 0 1 2 3 3 4 4 4 4 4 4 3 3 3 3 3 3 2 2 2 3 2 2 2 2 2 2 2 1 1 1
1 3 2 3 3 4 5 4 4 3 3 3 3 3 3 3 3 2 2 1 1 2 2 2 3 3 3 3 3 3 3 3 3 3 3 3 2 2 3 3 3 2 2 2 3 2 1 1 1
1 1 1 2 2 3 4 6 3 3 2 1 2 2 3 3 2 2 2 1 1 1 2 2 2 2 2 3 3 3 3 3 3 3 3 3 2 3 3 3 3 3 3 3 2 2 2 2 1
2 3 4 3 3 3 3 6 2 2 1 1 1 2 3 3 3 3 2 2 2 1 1 1 1 1 2 2 2 3 3 3 3 3 3 3 3 3 3 3 3 3 2 3 3 3 2 2 2
Wind_Direction
342 16 67 59 59 57 229 238 214 212 216 222 120 132 147 157 161 187 332 5 74 133 155 154 136 129 127 124 120 113 108 105 103 101 100 98 97 98 96 93 89 87 86 85 84 82 81 81 80
349 40 58 64 102 192 252 233 214 216 182 106 62 76 98 164 20 52 355 326 80 126 138 135 131 132 128 124 120 116 111 108 105 103 101 100 98 98 97 95 91 88 86 85 85 84 82 81 81
24 55 87 90 149 195 224 223 212 213 121 91 87 51 116 207 8 262 302 32 80 107 110 133 130 131 128 123 118 114 111 108 106 104 102 100 98 95 95 93 93 91 87 85 86 85 83 82 81
76 53 62 102 214 220 214 221 173 140 66 72 124 90 25 26 328 304 49 97 90 88 94 131 129 129 126 121 117 113 112 111 108 106 103 100 97 95 95 93 92 92 90 88 87 86 85 82 80
58 82 93 223 235 238 233 230 151 148 168 133 137 146 271 15 32 69 87 97 99 76 79 123 127 127 126 123 117 114 112 110 109 108 106 102 98 95 94 94 93 92 92 91 89 88 88 83 81
61 79 141 222 235 245 244 196 144 141 164 122 140 149 206 46 64 81 88 85 84 80 72 92 125 124 124 123 121 115 110 107 105 105 105 103 99 96 94 94 93 92 91 89 90 91 90 87 84
115 124 198 212 227 250 230 151 152 169 194 213 171 151 215 359 67 94 87 78 69 63 66 68 83 106 116 116 117 115 109 104 100 97 95 96 95 94 93 92 92 91 91 91 91 91 90 87 85
131 123 211 218 211 239 208 149 163 166 197 160 139 161 218 219 127 100 83 73 66 56 54 63 70 75 84 94 104 106 104 99 94 90 85 85 86 89 89 87 87 87 90 93 92 91 88 85 83
103 115 221 215 200 227 177 159 108 83 111 87 120 156 344 127 127 109 92 71 66 58 43 51 68 74 78 82 89 86 87 85 84 80 78 77 74 76 78 81 82 84 87 91 92 90 86 80 77
120 194 226 210 193 185 159 167 170 133 114 188 2 35 80 126 139 140 142 147 135 104 52 51 62 78 83 84 77 70 68 68 69 70 71 67 66 72 77 77 77 77 76 79 84 84 80 73 67
165 206 216 214 202 184 176 165 153 149 204 212 199 177 145 145 153 160 164 163 156 135 89 61 67 73 87 87 83 74 71 69 66 67 71 76 71 69 68 72 67 65 65 63 69 71 65 67 68
178 242 225 246 207 191 196 175 164 181 221 247 186 151 151 162 173 177 173 163 143 123 108 76 80 81 89 92 89 85 79 74 71 64 67 80 82 75 72 77 73 68 68 70 66 74 72 69 68
211 225 171 162 96 154 123 149 169 241 289 35 92 122 155 174 181 179 161 140 133 139 126 102 92 95 102 100 95 90 85 79 74 67 61 72 90 93 84 79 78 71 72 76 74 79 83 78 69
203 190 229 272 217 199 138 268 221 258 201 102 119 154 169 179 179 170 163 165 168 169 152 127 112 112 111 109 102 97 92 86 78 69 63 68 78 93 92 83 78 72 71 75 82 86 90 84 77
134 112 298 249 217 199 109 297 240 241 129 137 171 177 176 185 176 188 190 186 181 172 153 146 133 113 114 118 111 103 98 92 83 75 69 70 72 82 88 83 76 66 71 80 84 81 82 80 73
100 156 255 260 187 187 153 251 255 181 160 204 215 206 200 208 204 208 193 181 171 162 156 155 143 126 127 129 116 107 100 95 87 81 75 71 73 77 85 82 72 67 73 80 88 86 87 78 73
166 221 234 263 195 154 174 242 259 178 174 213 226 222 219 231 234 221 199 186 174 169 159 153 143 140 139 130 115 107 101 95 91 85 77 70 73 78 83 82 75 71 74 71 83 78 86 91 80
212 213 226 225 240 148 198 241 269 256 198 222 232 235 235 238 242 223 191 178 168 166 158 148 144 142 135 122 108 103 91 83 82 83 82 84 79 81 85 84 75 74 76 69 79 89 73 82 81
174 185 224 240 209 169 220 248 262 251 239 246 245 240 243 251 266 225 178 163 157 162 156 156 148 146 139 136 138 134 126 107 92 86 81 83 81 87 91 89 85 79 79 76 88 101 87 66 56
216 228 242 273 184 195 245 264 264 234 227 228 232 238 244 264 284 239 188 167 172 174 169 162 158 154 152 149 143 128 122 113 104 91 79 76 85 89 97 98 100 91 87 78 75 91 96 73 46
229 224 227 235 339 15 319 290 261 253 236 250 235 236 245 233 236 229 206 192 180 179 179 170 170 159 153 137 118 105 91 86 91 87 86 76 91 92 89 97 103 99 101 106 92 88 96 115 64
242 238 220 214 211 260 188 274 272 254 267 257 253 254 254 256 239 221 206 197 194 192 179 167 161 156 157 144 142 139 140 141 154 145 129 108 96 101 99 102 100 104 104 108 106 79 83 112 111
240 250 205 204 196 250 231 238 276 289 266 270 260 255 256 250 231 218 207 200 191 178 167 160 150 156 157 153 155 150 139 133 124 120 117 112 102 100 105 117 116 113 106 111 109 88 82 98 113
193 86 72 85 134 246 225 209 270 233 238 268 273 266 269 261 242 232 207 160 152 146 148 150 151 156 157 154 153 151 147 137 132 132 135 138 119 106 93 108 121 122 117 124 133 118 108 104 99
113 112 58 321 236 243 201 208 252 250 243 236 262 271 276 265 222 191 163 159 158 150 151 153 151 157 158 158 159 162 159 154 157 158 159 153 146 140 155 130 136 130 127 129 121 117 121 119 117
221 172 174 203 224 265 219 228 252 257 289 281 270 286 339 345 337 199 194 180 170 162 158 156 160 160 157 161 167 164 161 160 163 162 156 164 172 171 161 159 148 129 120 124 125 122 137 124 143
164 207 189 141 144 249 254 278 299 338 358 1 357 12 353 344 355 341 354 155 163 161 162 164 164 163 164 167 162 156 162 169 166 159 152 162 161 158 155 161 151 142 136 137 136 146 155 151 171
120 145 101 154 193 245 271 262 260 293 301 334 350 343 335 355 6 2 5 53 141 157 151 141 160 169 163 163 167 168 168 168 159 151 159 163 166 161 161 164 159 150 149 150 146 146 147 156 186
86 103 114 148 185 193 255 267 243 229 230 250 290 322 339 345 343 345 356 19 56 76 124 142 150 141 146 161 164 162 168 163 156 159 171 172 167 164 169 177 176 171 169 161 158 162 156 171 193
150 172 150 174 248 215 228 268 314 234 278 227 291 328 346 357 360 359 2 22 45 64 89 137 152 160 169 168 160 163 164 165 170 173 179 172 174 176 176 180 184 192 187 175 177 185 189 196 207